星链-34104 (STARLINK-34104)

导读 | 豆包AI

STARLINK-34104是美国SpaceX星链计划的低轨通信卫星,于2025年5月23日发射升空。它属于星链星座扩容组网的卫星之一,延续星链技术特征,运行在近地轨道,旨在补充全球卫星互联网通信覆盖能力,为地面用户提供高速低延迟的互联服务,支撑美国商业航天布局与全球卫星通信网络构建。

Basic Information
目录编号:
64102
目录名称:
STARLINK-34104
国际标识:
2025-110G
轨道中心:
EARTH
卫星名称:
星链-34104
卫星全名:
星链-34104 (STARLINK-34104)
卫星状态:
在轨 (已飞行341 天)
发射日期:
2025-05-23 UTC
国别 :
美国 (US)
星等 :
--
Orbit Information
数据来源 国际轨道数据 AOE轨道数据
星历时间 2026-04-29T14:16:48+0800
12小时前
查看轨道信息
2026-04-23T08:00:00+0800
6天前
查看轨道信息
半长轴 6853.326km 6853.433km
偏心率 0.0001568 0.0001619
轨道倾角 53.159° 53.155°
近地点辐角 125.550° 19.500°
升交点赤经 151.975° 181.063°
平近点角 234.565° 27.590°
近地点 474.114km 474.186km
远地点 476.264km 476.406km
周期 94.105分钟 94.107分钟
每日圈数 15.302089 15.301732
Detailed Information
固有亮度:
5
最大亮度:
2.5
卫星平台:
Starlink V1.0
覆盖范围:
全球
运营商:
太空探索技术公司
运营商所在国:
美国
制造商(研发单位):
太空探索技术公司
制造商所在国:
美国
使用方式:
暂无
Satellite Introduction
Starlink 计划是 SpaceX 推出的全球卫星互联网项目,通过发射低轨道卫星,为全球尤其是偏远地区提供高速、低延迟的互联网服务。自 2019 年起,Starlink 已部署数千颗卫星,旨在缩小全球数字鸿沟,推动互联网普及。该项目还为军事、航空等行业提供通信支持,带来广泛经济效益。
2D Orbit Map
3D Orbit Map
Orbit Altitude Analysis Chart
Orbit Inclination Analysis Chart
Orbit Comprehensive Analysis Chart
View Comprehensive Chart